NIGERIAEDUSAT-1 (42824 NORAD) Tracking and Keplerian Element Data

This shows tracking and keplerian element data for the satellite.

Feedback or suggestion? Click here.




ElementValue
Catalog42824
NameNIGERIAEDUSAT-1
Epoch Orbit8171
Epoch Day345.54608595
Epoch Year2018
RAAN173.8754
Inclination51.6328
Eccentricity0.000544
Argument of Perigee162.7873
Mean Anonmoly197.3313
Mean Motion15.77555403
Decay Rate0.00038577
L11 42824U 98067MY 18345.54608595 .00038577 00000-0 22952-3 0 9996
L22 42824 51.6328 173.8754 0005440 162.7873 197.3313 15.77555403 81715

Live tracking and technical data element details for NIGERIAEDUSAT-1 (NORAD 42824). NIGERIAEDUSAT-1 can be tracked NOW for your location showing map with azimuth and elevation plus other details from your city location.

Track the satellite on the map from your city or location and see movement details for azimuth, elevation, latitude, longitude, range, height, and movement on the map or in text.







IsCatalogInMostPopularTable: catalog: 42824, numindb: 101
Update: records affected: 1



GetName: 42824 NIGERIAEDUSAT-1

Hit Count: updated at: Thu, 13 Dec 2018 03:45:59 GMT